Date String (YYYY-MM-DD hh:mm:ss) UTC,Instrument flags,Ambient pressure (hPa),Sample flow (lpm),Bypass flow (lpm),Sample temperature (°C),Ambient temperature (°C),ASC tube jacket temperature (°C),LED temperature (°C),Box temperature (°C),Sample RH (%),Span deviation,Mass concentration (μg/m³),Mass concentration (μg/m³),Mass concentration (μg/m³)
DateTimeUTC,F1_M11,P_M11,Q1_M11,Q2_M11,T1_M11,T2_M11,T3_M11,T4_M11,T5_M11,U1_M11,ZSPAN_M11,X2_M11,X0_M11,X1_M11
2023-01-04 00:00:00,,0817.0,5.02,0.00,22.5,21.8,00.0,31.2,24.4,12.4,0000.0,0005.51,0009.47,0005.32
2023-01-04 00:01:00,,0817.0,5.00,0.00,22.5,21.6,00.0,31.3,24.3,12.4,0000.0,0005.53,0009.40,0005.34
2023-01-04 00:02:00,,0817.1,5.00,0.00,22.5,21.4,00.0,31.3,24.3,12.4,0000.0,0005.55,0009.65,0005.35
2023-01-04 00:03:00,,0817.1,4.99,0.00,22.5,21.3,00.0,31.3,24.3,12.4,0000.0,0005.52,0010.30,0005.31
2023-01-04 00:04:00,,0817.1,5.00,0.00,22.5,21.2,00.0,31.3,24.3,12.4,0000.0,0005.45,0010.22,0005.26
2023-01-04 00:05:00,,0817.1,5.00,0.00,22.5,21.1,00.0,31.3,24.2,12.4,0000.0,0005.45,0010.19,0005.26
2023-01-04 00:06:00,,0817.2,5.00,0.00,22.5,21.1,00.0,31.3,24.2,12.4,0000.0,0005.50,0009.77,0005.26
2023-01-04 00:07:00,,0817.2,5.01,0.00,22.4,21.0,00.0,31.3,24.1,12.4,0000.0,0005.51,0009.67,0005.25
2023-01-04 00:08:00,,0817.2,5.01,0.00,22.4,21.0,00.0,31.3,24.2,12.5,0000.0,0005.55,0009.74,0005.28
2023-01-04 00:09:00,,0817.1,5.01,0.00,22.4,21.0,00.0,31.3,24.2,12.4,0000.0,0005.59,0009.80,0005.31
2023-01-04 00:10:00,,0817.2,5.00,0.00,22.4,21.0,00.0,31.3,24.2,12.4,0000.0,0005.62,0009.79,0005.32
2023-01-04 00:11:00,,0817.1,5.01,0.00,22.4,21.1,00.0,31.3,24.2,12.4,0000.0,0005.60,0009.48,0005.31
2023-01-04 00:12:00,,0817.1,4.99,0.00,22.4,21.0,00.0,31.3,24.2,12.4,0000.0,0005.61,0009.47,0005.33
2023-01-04 00:13:00,,0817.1,5.00,0.00,22.4,20.8,00.0,31.3,24.1,12.4,0000.0,0005.64,0009.20,0005.36
2023-01-04 00:14:00,,0817.1,4.99,0.00,22.3,20.7,00.0,31.2,24.0,12.4,0000.0,0005.70,0008.71,0005.41
2023-01-04 00:15:00,,0817.1,4.99,0.00,22.3,20.6,00.0,31.2,24.0,12.5,0000.0,0005.79,0008.86,0005.48
2023-01-04 00:16:00,,0817.1,5.01,0.00,22.3,20.7,00.0,31.2,24.0,12.5,0000.0,0005.85,0008.84,0005.55
2023-01-04 00:17:00,,0817.1,5.01,0.00,22.3,20.7,00.0,31.2,24.0,12.5,0000.0,0005.87,0008.80,0005.61
2023-01-04 00:18:00,,0817.2,5.00,0.00,22.3,20.8,00.0,31.2,24.0,12.5,0000.0,0005.92,0009.08,0005.68
2023-01-04 00:19:00,,0817.1,5.00,0.00,22.3,20.8,00.0,31.2,24.0,12.6,0000.0,0005.99,0009.31,0005.75
2023-01-04 00:20:00,,0817.0,5.00,0.00,22.3,20.8,00.0,31.2,24.0,12.6,0000.0,0006.06,0009.40,0005.81
2023-01-04 00:21:00,,0817.0,5.00,0.00,22.2,20.8,00.0,31.2,24.0,12.6,0000.0,0006.11,0009.60,0005.88
2023-01-04 00:22:00,,0817.0,5.00,0.00,22.2,20.7,00.0,31.2,23.9,12.6,0000.0,0006.17,0009.90,0005.94
2023-01-04 00:23:00,,0817.1,5.01,0.00,22.2,20.5,00.0,31.1,23.8,12.7,0000.0,0006.21,0010.08,0005.97
2023-01-04 00:24:00,,0817.3,5.01,0.00,22.1,20.4,00.0,31.1,23.8,12.7,0000.0,0006.22,0010.14,0005.98
2023-01-04 00:25:00,,0817.5,5.01,0.00,22.2,21.1,00.0,31.0,24.0,12.6,0000.0,0006.24,0010.06,0006.00
2023-01-04 00:26:00,,0817.4,4.99,0.00,22.3,22.0,00.0,31.0,24.2,12.6,0000.0,0006.25,0010.01,0006.02
2023-01-04 00:27:00,,0817.2,5.00,0.00,22.4,22.5,00.0,31.1,24.4,12.6,0000.0,0006.26,0010.03,0006.04
2023-01-04 00:28:00,,0817.1,4.99,0.00,22.4,22.2,00.0,31.1,24.4,12.6,0000.0,0006.32,0010.82,0006.09
2023-01-04 00:29:00,,0817.0,5.01,0.00,22.4,21.8,00.0,31.2,24.3,12.6,0000.0,0006.41,0011.07,0006.16
2023-01-04 00:30:00,,0817.1,5.01,0.00,22.4,21.5,00.0,31.2,24.2,12.7,0000.0,0006.49,0010.95,0006.22
2023-01-04 00:31:00,,0817.2,5.00,0.00,22.4,21.3,00.0,31.2,24.1,12.7,0000.0,0006.52,0011.64,0006.25
2023-01-04 00:32:00,,0817.4,5.00,0.00,22.4,21.1,00.0,31.2,24.1,12.7,0000.0,0006.57,0011.82,0006.29
2023-01-04 00:33:00,,0817.5,4.99,0.00,22.3,21.1,00.0,31.2,24.1,12.6,0000.0,0006.64,0011.77,0006.35
2023-01-04 00:34:00,,0817.4,5.00,0.00,22.3,21.0,00.0,31.2,24.0,12.5,0000.0,0006.69,0011.90,0006.39
2023-01-04 00:35:00,,0817.3,5.00,0.00,22.3,20.9,00.0,31.2,24.0,12.6,0000.0,0006.75,0011.88,0006.44
2023-01-04 00:36:00,,0817.1,5.01,0.00,22.3,20.8,00.0,31.2,23.9,12.6,0000.0,0006.82,0012.01,0006.50
2023-01-04 00:37:00,,0817.2,5.00,0.00,22.3,20.8,00.0,31.2,23.9,12.7,0000.0,0006.86,0012.09,0006.54
2023-01-04 00:38:00,,0817.2,5.00,0.00,22.2,20.8,00.0,31.1,23.9,12.7,0000.0,0006.91,0012.20,0006.58
2023-01-04 00:39:00,,0817.4,5.00,0.00,22.2,20.8,00.0,31.1,23.9,12.7,0000.0,0006.94,0011.75,0006.62
2023-01-04 00:40:00,,0817.4,5.00,0.00,22.2,20.7,00.0,31.1,23.9,12.7,0000.0,0006.93,0011.29,0006.64
2023-01-04 00:41:00,,0817.4,5.01,0.00,22.2,20.7,00.0,31.1,23.8,12.7,0000.0,0006.96,0011.34,0006.67
2023-01-04 00:42:00,,0817.4,5.00,0.00,22.2,20.7,00.0,31.1,23.8,12.7,0000.0,0007.02,0010.90,0006.72
2023-01-04 00:43:00,,0817.3,5.00,0.00,22.1,20.7,00.0,31.1,23.8,12.8,0000.0,0007.08,0010.65,0006.78
2023-01-04 00:44:00,,0817.3,5.00,0.00,22.1,20.8,00.0,31.0,23.8,12.8,0000.0,0007.11,0010.77,0006.82
2023-01-04 00:45:00,,0817.3,5.01,0.00,22.2,21.6,00.0,31.0,24.0,12.8,0000.0,0007.15,0010.62,0006.87
2023-01-04 00:46:00,,0817.4,5.00,0.00,22.3,22.5,00.0,31.0,24.3,12.8,0000.0,0007.23,0010.78,0006.93
2023-01-04 00:47:00,,0817.4,4.98,0.00,22.4,22.7,00.0,31.1,24.4,12.7,0000.0,0007.28,0010.85,0006.98
2023-01-04 00:48:00,,0817.4,5.00,0.00,22.5,22.3,00.0,31.1,24.4,12.7,0000.0,0007.35,0012.01,0007.05
2023-01-04 00:49:00,,0817.4,5.01,0.00,22.4,21.9,00.0,31.2,24.3,12.6,0000.0,0007.43,0012.33,0007.12
2023-01-04 00:50:00,,0817.3,5.00,0.00,22.4,21.5,00.0,31.2,24.2,12.7,0000.0,0007.49,0012.95,0007.17
2023-01-04 00:51:00,,0817.3,5.00,0.00,22.4,21.3,00.0,31.2,24.1,12.7,0000.0,0007.56,0013.38,0007.23
2023-01-04 00:52:00,,0817.3,5.00,0.00,22.4,21.1,00.0,31.2,24.1,12.8,0000.0,0007.64,0013.49,0007.32
2023-01-04 00:53:00,,0817.4,5.01,0.00,22.3,21.0,00.0,31.2,24.0,12.8,0000.0,0007.76,0013.79,0007.42
2023-01-04 00:54:00,,0817.5,4.99,0.00,22.3,20.8,00.0,31.2,24.0,12.9,0000.0,0007.90,0013.97,0007.54
2023-01-04 00:55:00,,0817.5,4.99,0.00,22.3,20.8,00.0,31.2,24.0,12.9,0000.0,0008.05,0013.92,0007.68
2023-01-04 00:56:00,,0817.4,5.00,0.00,22.2,20.7,00.0,31.2,23.9,12.8,0000.0,0008.24,0014.21,0007.84
2023-01-04 00:57:00,,0817.3,5.00,0.00,22.2,20.7,00.0,31.2,23.9,12.8,0000.0,0008.36,0014.29,0007.97
2023-01-04 00:58:00,,0817.4,5.00,0.00,22.2,20.7,00.0,31.1,23.9,12.8,0000.0,0008.50,0014.38,0008.12
2023-01-04 00:59:00,,0817.4,5.00,0.00,22.2,20.7,00.0,31.1,23.9,12.8,0000.0,0008.65,0013.71,0008.26
